Regional Weather Roundup
Issued by NWS

Home | Current Version | Previous Version | Text Only | Print | Product List | Glossary Off
Versions: 1 2 3 4 5 6 7 8 9 10 11 12 13 14 15 16 17 18 19 20 21 22 23 24 25 26 27 28 29 30 31 32 33 34 35 36 37 38 39 40 41 42 43 44 45 46 47 48 49 50

000
ASUS43 KFSD 041102
RWRSD

WEATHER ROUNDUP FOR SOUTH DAKOTA
NATIONAL WEATHER SERVICE SIOUX FALLS SD
600 AM CDT SAT JUL 04 2015

NOTE: "FAIR" INDICATES FEW OR NO CLOUDS BELOW 12,000 FEET WITH NO
SIGNIFICANT WEATHER AND/OR OBSTRUCTIONS TO VISIBILITY.


SDZ001>005-009-010-012>017-041200-
NORTHWEST AND NORTH CENTRAL SOUTH DAKOTA

CITY           SKY/WX    TMP DP  RH WIND       PRES   REMARKS
BUFFALO          N/A     63  60  90 CALM      29.80F
FAITH            N/A     64  59  83 SE14      29.86F
MOBRIDGE       PTCLDY    68  67  96 S10       29.86S FOG
$$

SDZ012>016-024>037-041>051-057-063-072>074-041200-
SOUTHWEST AND SOUTH CENTRAL SOUTH DAKOTA

CITY           SKY/WX    TMP DP  RH WIND       PRES   REMARKS
RAPID CTY ARPT CLEAR     61  58  90 SE7       29.88F
PIERRE         PTCLDY    63  62  97 SE7       29.87F
CUSTER         MOCLDY    55  51  86 W3        30.03F
ELLSWORTH AFB  CLEAR     66  58  76 S8        29.87F
PHILIP         MOCLDY    62  60  93 SE6       29.87F FOG
PINE RIDGE     CLEAR     68  59  73 S21G26    29.91F
WINNER         FAIR      69  60  73 S14       29.91S
$$

SDZ004>011-016>023-039-040-041200-
NORTHEAST SOUTH DAKOTA

CITY           SKY/WX    TMP DP  RH WIND       PRES   REMARKS
ABERDEEN       CLEAR     62  61  96 S3        29.91R FOG
WATERTOWN      CLEAR     64  61  90 SE6       29.94F FOG
BROOKINGS      CLEAR     63  61  94 S5        29.97S
SISSETON         N/A     60  59  96 SE3       29.90S
$$

SDZ017-020-022-023-036>040-048>070-041200-
SOUTHEAST SOUTH DAKOTA

CITY           SKY/WX    TMP DP  RH WIND       PRES   REMARKS
SIOUX FALLS    CLEAR     62  59  90 CALM      29.96F
HURON          CLEAR     63  62  97 SE8       29.91S FOG
CHAMBERLAIN    PTCLDY    63  62  97 SE3       29.91F
MITCHELL       CLEAR     63  62  97 S8        29.93F FOG
YANKTON          N/A     59  57  94 SE5       29.95F VSB<1/4
$$

ABBREVIATIONS USED IN REMARKS
   TC - TEMPERATURE IN CELSIUS
  WCI - WIND CHILL INDEX
   HX - HEAT INDEX
  VSB - VISIBILITY



USA.gov is the U.S. government's official web portal to all federal, state and local government web resources and services.